Tracking 23099 objects as of 13-May-2021
HD Live streaming from Space Station
objects crossing your sky now

LUCH DEB

Track LUCH DEB now!


NORAD ID: 44582
Int'l Code: 1994-082G
Perigee: 35,566.0 km
Apogee: 35,785.7 km
Inclination: 14.7 °
Period: 1,430.1 minutes
Semi major axis: 42046 km
RCS: Unknown
Launch date: December 16, 1994
Source: Commonwealth of Independent States (former USSR) (CIS)
Launch site: TYURATAM MISSILE AND SPACE COMPLEX (TTMTR)

Note: This is SATELLITE DEBRIS
aabbcc
Your satellite tracking list
Your tracking list is empty




NASA's NSSDC Master Catalog

Two Line Element Set (TLE):
1 44582U 94082G   21132.08434775 -.00000297  00000-0  00000-0 0  9992
2 44582  14.7230   9.0255 0026135  51.5754 139.7938  1.00693774 27496
Source of the keplerian elements: AFSPC